Location: Bougoura
(13.1861°N, 5.0773°W)
Time: 00:05:25
(UTC+00:00)

Centaur AC-119 - Pass Details

Date: 18 September 2020
Orbit: 256 x 14023 km, 26.8° (Epoch: 21 October)

Event Time Altitude Azimuth Distance (km) Brightness Sun altitude
Rises 19:49:22 0° 247° (WSW) 4,067 7.7 -22.8°
Reaches altitude 10° 19:53:27 10° 249° (WSW) 2,057 6.0 -23.8°
Enters shadow 19:56:14 35° 258° (WSW) 679 3.3 -24.4°
